Location: Lango�lan
(48.1202°N, 3.2340°W)
Time: 14:27:43
(UTC+00:00)

Cosmos 1674 - Pass Details

Date: 23 October 2019
Orbit: 496 x 518 km, 82.5° (Epoch: 12 November)

Event Time Altitude Azimuth Distance (km) Brightness Sun altitude
Rises 06:06:20 0° 222° (SW) 2,574 5.9 -6.9°
Reaches altitude 10° 06:08:48 10° 239° (WSW) 1,697 4.9 -6.5°
Maximum altitude 06:11:41 21° 290° (WNW) 1,165 3.9 -6.0°
Drops below altitude 10° 06:14:36 10° 341° (NNW) 1,713 5.1 -5.6°
Sets 06:17:08 0° 358° (N) 2,605 6.1 -5.1°
